Other Public Products
Issued by NWS Grand Forks, ND

Home | Current Version | Previous Version | Graphics & Text | Print | Product List | Glossary On
Versions: 1 2 3 4 5 6 7 8 9 10 11 12 13 14 15 16 17 18 19 20 21 22 23 24 25 26 27 28 29 30 31 32 33 34 35 36 37 38 39 40 41 42 43 44 45 46 47 48 49 50
000
FPUS83 KFGF 041010
OPUFGF
PRAIRIE TO PINES WEATHER ROUNDUP
NATIONAL WEATHER SERVICE EASTERN NORTH DAKOTA/GRAND FORKS ND
400 AM CST WED MAR 04 2015

 **SATELLITE DATA USED TO AUGMENT SKY COVER AT AUTOMATED STATIONS**
 *****  WEATHER ACROSS EASTERN NORTH DAKOTA  *****

CITY           SKY/WX    TMP DP  RH WIND       PRES   REMARKS
GRAND FORKS    CLEAR     -6 -14  68 NW10      30.09R WCI -24
GRAND FORKS AF CLEAR     -5 -14  66 NW10      30.08R WCI -23
GRAND CITY NWS   N/A     -6 N/A N/A NW6         N/A  WCI -18
BUXTON         NOT AVBL
DEVILS LAKE    CLEAR     -8 -17  65 NW15      30.04R WCI -29
FARGO          CLEAR     -3 -11  68 W9        30.10R WCI -19
WAHPETON ARPT  FAIR      -6 -13  71 W7        30.11S WCI -20
$$

 *****  WEATHER ACROSS CENTRAL AND WESTERN NORTH DAKOTA  *****

CITY           SKY/WX    TMP DP  RH WIND       PRES   REMARKS
JAMESTOWN      MOCLDY    -3  -8  79 NW12      30.06R WCI -21
BISMARCK       PTCLDY     1  -6  72 NW18      30.12R WCI -20
MINOT          FAIR      -8 -16  67 W15       30.10R WCI -30
MINOT AFB      CLEAR     -9 -16  70 NW20      30.10R WCI -33
GARRISON         N/A     -7 -13  75 NW15      30.10R WCI -28
WILLISTON      CLEAR     -8 -15  71 NW12      30.18R WCI -27
DICKINSON      CLEAR     -3 -12  65 NW18G25   30.06R WCI -25
HETTINGER      CLEAR     -5 -10  79 W3        30.08R
$$

 *****  OTHER OBSERVATIONS NORTHEAST NORTH DAKOTA  *****

CITY           SKY/WX    TMP DP  RH WIND       PRES   REMARKS
WALHALLA         N/A     -9 -15  77 NW6       30.09R WCI -23
LANGDON        NOT AVBL
CAVALIER       FLURRIES  -8 -11  84 N6        30.09R WCI -21
GRAFTON        NOT AVBL
CANDO          FAIR     -13 -18  77 NW12      30.06R WCI -33
FORT TOTTEN      N/A     -8 -15  69 NW6       29.95S WCI -21
ROLLA          FAIR      -9 -18  64 NW17G24   30.02R WCI -33
RUGBY          FAIR     -11 -17  77 NW16      30.08R WCI -34
 ***** THE ABOVE OBSERVATIONS ARE NON NWS ARE NOT QUALITY
        CONTROLLED AND MAY MIS-REPORT RAIN FOR SNOW...
$$

 *****  OTHER OBSERVATIONS SOUTHEAST NORTH DAKOTA *****

CITY           SKY/WX    TMP DP  RH WIND       PRES   REMARKS
COOPERSTOWN    NOT AVBL
VALLEY CITY    CLOUDY    -2  -8  78 NW12      30.07R WCI -20
OAKES            N/A      0  -6  78 W8        30.09S WCI -15
GWINNER        SUNNY      1  -8  66 W7        30.10R WCI -11
BUFFALO        NOT AVBL
WYNDMERE       NOT AVBL
 ***** THE ABOVE OBSERVATIONS ARE NON NWS ARE NOT QUALITY
       CONTROLLED AND MAY MIS-REPORT RAIN FOR SNOW...
$$

  *****  WEATHER ACROSS NORTHERN MINNESOTA  *****

CITY           SKY/WX    TMP DP  RH WIND       PRES   REMARKS
FLAG ISLAND    CLEAR    -15 -18  84 W8        29.95R WCI -32
WARROAD        CLEAR    -15 -18  84 W6        29.97R WCI -29
ROSEAU         CLEAR     -9 -17  70 W8        30.00R WCI -26
HALLOCK        NOT AVBL
THF RVR FALLS  PTCLDY    -8 -11  84 W8        30.01R WCI -23
HALSTAD        NOT AVBL
FOSSTON        CLEAR    -11 -17  77 W8        30.01R WCI -28
BAUDETTE       CLEAR    -13 -18  78 W6        29.94R WCI -27
WASKISH        CLEAR     -9 -15  77 W6        29.95R WCI -23
CROOKSTON      CLEAR     -6 -11  77 NW10      30.07R WCI -23
$$
  *****  WEATHER ACROSS CENTRAL AND WEST MINNESOTA  *****

CITY           SKY/WX    TMP DP  RH WIND       PRES   REMARKS
BEMIDJI        CLEAR     -9 -13  80 W8        29.95S WCI -25
PARK RAPIDS    CLEAR    -10 -15  78 W8        29.97S WCI -26
WADENA         CLEAR     -9 -13  84 W8        30.01R WCI -26
DETROIT LAKES  CLEAR     -4  -8  84 W7        30.02S WCI -18
MOORHEAD       CLEAR      0  -8  71 W9        30.10R WCI -16
FERGUS FALLS   FAIR      -8 -15  71 W6        30.12S WCI -21
ELBOW LAKE     FAIR      -6 -11  78 W8        30.07S WCI -21
MORRIS MN      CLEAR     -4 -11  71 NW10      30.08F WCI -21
STAPLES        CLEAR     -9 -15  77 W6        30.01S WCI -23
WHEATON        CLEAR     -8 -15  71 SW7       30.13S WCI -22
$$
  *****  WEATHER ELSEWHERE ACROSS MINNESOTA  *****

CITY           SKY/WX    TMP DP  RH WIND       PRES   REMARKS
DULUTH         CLEAR     -5 -12  72 W14       29.90R WCI -25
INTRNTL FALLS  CLEAR    -11 -17  75 W7        29.92R WCI -26
ELY            PTCLDY    -8 -13  77 W6        29.87R HAZE    WCI -21
CLOQUET        CLEAR     -6 -11  77 W14       29.94S WCI -26
BRAINERD       CLEAR     -6 -11  79 W7        30.01S WCI -20
HIBBING        FAIR      -7 -14  71 W6        29.93R WCI -20
ALEXANDRIA     CLEAR     -5 -10  79 W12       30.04S WCI -23
SAINT CLOUD    CLEAR     -2 -10  69 W9        30.06S WCI -18
MINNEAPOLIS    CLEAR      1  -7  68 W12       30.10S WCI -16
$$

  *****  WEATHER ACROSS SOUTH DAKOTA  *****

CITY           SKY/WX    TMP DP  RH WIND       PRES   REMARKS
SIOUX FALLS    CLEAR      1  -4  79 SW3       30.14F
BROOKINGS      NOT AVBL
WATERTOWN      CLEAR     -9 -13  83 W7        30.06F WCI -24
HURON          CLEAR     -3  -7  82 SE3       30.14F
SISSETON         N/A     -2 -10  69 NW9       30.10R WCI -18
ABERDEEN       CLOUDY    -3  -9  75 CALM      30.13R
MITCHELL       CLEAR      3  -3  76 SW3       30.16F
PIERRE         CLEAR      3  -4  72 W9        30.11S WCI -12
MOBRIDGE       MOCLDY     7  -1  70 NW15      30.07R WCI -10
RAPID CITY     CLEAR      1  -7  68 NW7       30.08S WCI -12
$$

  *****  SOME WEATHER IN NEARBY STATES *****

CITY           SKY/WX    TMP DP  RH WIND       PRES   REMARKS
GLASGOW MT     PTCLDY    -2 -10  69 NW8       30.21S WCI -17
GREAT FALLS MT CLOUDY     7   1  76 SW7       30.17S WCI  -5
CHEYENNE WY    CLOUDY     4  -1  80 N6        29.94S WCI  -7
SCOTTSBLUFF NE MOCLDY     7   3  84 W5        30.09S WCI  -2
OMAHA NE       CLOUDY    17   8  67 N9        30.20S WCI   6
DES MOINES IA  MOCLDY    15   1  53 N12       30.16S WCI   2
DAVENPORT IA   CLEAR      9   0  67 NW16      30.08R WCI  -8
CHICAGO IL     MOCLDY    23  17  78 NW17      29.92R WCI   9
EAU CLAIRE WI  CLEAR      2  -7  66 W13       30.03R WCI -15
LA CROSSE WI   PTCLDY     9  -1  64 NW15      30.06R WCI  -8
$$

  *****  SOME NATIONAL WEATHER *****

CITY           SKY/WX    TMP DP  RH WIND       PRES   REMARKS
LA GUARDIA NY  CLOUDY    37  32  82 W8        29.79R
RALEIGH NC     FOG       41  39  93 SW12      30.00S VSB 1/8
ATLANTA GA     FOG       51  50  96 CALM      30.03F VSB 1/4
NEW ORLEANS LA MOCLDY    68  65  90 SE7       29.96S
OKLAHOMA CITY  CLOUDY    38  28  67 N18G26    29.96R
ALBUQUERQUE NM PTCLDY    35  28  75 NW5       29.88F
SALT LAKE CITY MOCLDY    29  22  75 SE6       30.05R WCI  23
LOS ANGELES CA CLEAR     51  45  79 NE3       29.99R
BOISE ID       CLEAR     23  13  65 SW3       30.15S
SEATTLE WA     PTCLDY    36  22  56 SE7       30.27S
$$

*** WEATHER ACROSS MANITOBA...SASKATCHEWAN AND ONTARIO ***
                ***ONTARIO***

CITY           SKY/WX    TMP DP  RH WIND       PRES   REMARKS
GERALDTON      FLURRIES  -6 -15  65 W10G23    29.63R WCI -23
THUNDER BAY    PTCLDY    -2 -13  60 NW9       29.85R WCI -18
SIOUX LOOKOUT  MOCLDY   -13 -20  70 NW9       29.80R WCI -31
TORONTO        CLOUDY    30  23  74 W15G23    29.76R WCI  19
BIG TROUT LK   CLEAR    -17 -22  76 N12       29.78R WCI -38
PICKLE LAKE    NOT AVBL
DRYDEN         PTCLDY   -15 -22  70 W10       29.83R WCI -35
KENORA         FLURRIES -15 -20  76 NW8       29.89R WCI -32
$$
                *** MANITOBA***

CITY           SKY/WX    TMP DP  RH WIND       PRES   REMARKS
BRANDON        CLEAR    -18 -26  69 NW13      30.10R WCI -41
DAUPHIN        CLOUDY   -13 -20  70 W13       30.13R WCI -34
ISLAND LAKE    FLURRIES -17 -22  76 N9        29.97R WCI -36
PILOT MOUND      N/A    -15 -20  76 W6          N/A  WCI -29
THE PAS        CLEAR    -17 -22  76 NW8       30.18R WCI -34
THOMPSON       CLEAR    -20 -26  76 NW8       30.09S WCI -39
WINNIPEG       FLURRIES -15 -22  70 W12       30.07R WCI -36
LYNN LAKE      CLEAR    -24 -29  76 W8        30.12R WCI -43
CHURCHILL      CRYSTALS -22 -29  69 NW18      30.03F WCI -50
GILLAM         CLEAR    -22 -27  76 W7        30.04R WCI -39
$$
                ***SASKATCHEWAN***

CITY           SKY/WX    TMP DP  RH WIND       PRES   REMARKS
ESTEVAN        CLEAR    -15 -22  70 NW15      30.15R WCI -38
KINDERSLEY     PTCLDY   -13 -20  70 NW6       30.24S WCI -27
LLOYDMINSTER   CLEAR    -18 -27  63 SW7       30.22S WCI -35
PRINCE ALBERT  CLEAR    -22 -27  76 W5        30.28R WCI -36
REGINA         CLEAR    -18 -26  69 NW13      30.21R WCI -41
YORKTON        CLEAR    -17 -24  70 NW16G23   30.14R WCI -41


USA.gov is the U.S. government's official web portal to all federal, state and local government web resources and services.